Location: Sungai Buloh
(3.1000°N, 113.0000°E)
Time: 16:42:00
(UTC+00:00)

SL-16 R/B - Pass Details

Date: 12 January 2026
Orbit: 984 x 1007 km, 99.8° (Epoch: 10 February)

Event Time Altitude Azimuth Distance (km) Brightness Sun altitude
Rises 21:53:54 0° 201° (SSW) 3,730 5.6 -11.0°
Reaches altitude 10° 21:57:29 10° 221° (SW) 2,776 4.7 -10.2°
Maximum altitude 22:01:00 16° 256° (WSW) 2,377 4.1 -9.4°
Drops below altitude 10° 22:04:31 10° 291° (WNW) 2,765 4.2 -8.6°
Enters shadow 22:04:32 10° 291° (WNW) 2,766 4.2 -8.6°
